Aberdeen, United Kingdom

5:34 PM GMT on December 18, 2017 (GMT +0000)
Dyce

Weather History for EGPD - March, 2013

Change the Weather History Date:

Sunday, March 3, 2013

  Actual Average Record
Temperature  
Mean Temperature 45 °F -  
Max Temperature 51 °F 46 °F 51 °F (2002)
Min Temperature 39 °F 34 °F 19 °F (2001)
Degree Days  
Heating Degree Days 20    
Moisture  
Dew Point 37 °F    
Average Humidity 77    
Maximum Humidity 100    
Minimum Humidity 48    
Precipitation  
Precipitation 0.00 in 0.08 in - ()
Sea Level Pressure  
Sea Level Pressure 30.16 in    
Wind  
Wind Speed 3 mph ()    
Max Wind Speed 9 mph    
Max Gust Speed -    
Visibility 6.6 miles    
Events      
Averages and records for this station are not official NWS values.
T = Trace of Precipitation, MM = Missing Value Source: Averaged Metar Reports

Daily Weather History Graph

Daily Weather History Graph

Search for Another Location

Airport or City:

Trip Planner

Search our weather history database for the weather conditions in past years. The results will help you decide how hot, cold, wet, or windy it might be!

Date:

Astronomy

Mar. 03, 2013 Rise Set
Actual Time 6:56 AM GMT 5:45 PM GMT
Civil Twilight 6:18 AM GMT 6:24 PM GMT
Nautical Twilight 5:34 AM GMT 7:08 PM GMT
Astronomical Twilight 4:48 AM GMT 7:54 PM GMT
Moon 12:23 AM GMT (3/3) 8:41 AM GMT (3/3)
Length of Visible Light 12h 06m
Length of Day
10h 49m
Waning Gibbous, 66% of the Moon is Illuminated
Mar 3
Waning Gibbous
Mar 4
Last Quarter
Mar 11
New
Mar 19
First Quarter
Mar 27
Full

Hourly Weather History & Observations

Time (GMT) Temp. Windchill Dew Point Humidity Pressure Visibility Wind Dir Wind Speed Gust Speed Precip Events Conditions
12:20 AM 41.0 °F - 39.2 °F 93% 30.24 in 6.2 mi WSW 2.3 mph - N/A   Overcast
12:50 AM 41.0 °F - 39.2 °F 93% 30.24 in 6.2 mi Calm Calm - N/A   Mostly Cloudy
1:20 AM 39.2 °F - 37.4 °F 93% 30.24 in 6.2 mi WSW 2.3 mph - N/A   Overcast
1:50 AM 39.2 °F - 39.2 °F 100% 30.24 in 6.2 mi Calm Calm - N/A   Mostly Cloudy
2:20 AM 39.2 °F - 37.4 °F 93% 30.24 in 6.2 mi Calm Calm - N/A   Mostly Cloudy
2:50 AM 39 °F - 38 °F 94% 30.25 in 6 mi NNE 1.2 mph - -   Mist
2:50 AM 39.2 °F - 39.2 °F 100% 30.24 in 6.2 mi Calm Calm - N/A   Mostly Cloudy
3:20 AM 39.2 °F 37.0 °F 37.4 °F 93% 30.24 in 6.2 mi SSW 3.5 mph - N/A   Mostly Cloudy
3:50 AM 39.2 °F - 39.2 °F 100% 30.21 in 6.2 mi SSE 2.3 mph - N/A   Mostly Cloudy
4:20 AM 41.0 °F - 39.2 °F 93% 30.21 in 6.2 mi SSE 2.3 mph - N/A   Mostly Cloudy
4:50 AM 39.2 °F - 39.2 °F 100% 30.21 in 6.2 mi Calm Calm - N/A   Mostly Cloudy
5:20 AM 39.2 °F - 39.2 °F 100% 30.21 in 6.2 mi SE 2.3 mph - N/A   Mostly Cloudy
5:50 AM 39 °F - 38 °F 94% 30.23 in 10 mi Calm Calm - -  
5:50 AM 39.2 °F - 37.4 °F 93% 30.21 in 6.2 mi Calm Calm - N/A   Scattered Clouds
6:20 AM 39.2 °F - 37.4 °F 93% 30.21 in 6.2 mi South 2.3 mph - N/A   Mostly Cloudy
6:50 AM 39.2 °F 37.0 °F 37.4 °F 93% 30.21 in 6.2 mi West 3.5 mph - N/A   Mostly Cloudy
7:20 AM 41.0 °F 38.0 °F 39.2 °F 93% 30.21 in 6.2 mi West 4.6 mph - N/A   Mostly Cloudy
7:50 AM 39.2 °F 34.2 °F 37.4 °F 93% 30.21 in 6.2 mi North 6.9 mph - N/A   Mostly Cloudy
8:20 AM 41.0 °F - 39.2 °F 93% 30.21 in 6.2 mi ENE 2.3 mph - N/A   Mostly Cloudy
8:50 AM 41 °F - 39 °F 91% 30.22 in 12 mi NE 1.2 mph - -   Overcast
8:50 AM 41.0 °F - 39.2 °F 93% 30.21 in 6.2 mi Calm Calm - N/A   Mostly Cloudy
9:20 AM 42.8 °F - 39.2 °F 87% 30.21 in 6.2 mi Variable 2.3 mph - N/A   Mostly Cloudy
9:50 AM 44.6 °F 43.1 °F 39.2 °F 81% 30.21 in 6.2 mi Variable 3.5 mph - N/A   Mostly Cloudy
10:20 AM 46.4 °F 43.5 °F 37.4 °F 71% 30.18 in 6.2 mi SW 5.8 mph - N/A   Scattered Clouds
10:50 AM 46.4 °F 43.5 °F 37.4 °F 71% 30.18 in 6.2 mi SW 5.8 mph - N/A   Scattered Clouds
11:20 AM 46.4 °F 42.9 °F 37.4 °F 71% 30.18 in 6.2 mi West 6.9 mph - N/A   Scattered Clouds
11:50 AM 48 °F - 36 °F 52% 30.19 in 25 mi WSW 5.8 mph - -   Partly Cloudy
11:50 AM 48.2 °F - 37.4 °F 66% 30.18 in 6.2 mi West 6.9 mph - N/A   Scattered Clouds
12:20 PM 48.2 °F - 35.6 °F 62% 30.15 in 6.2 mi WSW 4.6 mph - N/A   Partly Cloudy
12:50 PM 51.8 °F - 37.4 °F 58% 30.15 in 6.2 mi WSW 5.8 mph - N/A   Scattered Clouds
1:20 PM 50.0 °F - 37.4 °F 62% 30.15 in 6.2 mi WNW 5.8 mph - N/A   Scattered Clouds
1:50 PM 51.8 °F - 35.6 °F 54% 30.12 in 6.2 mi WNW 4.6 mph - N/A   Scattered Clouds
2:20 PM 50.0 °F - 37.4 °F 62% 30.12 in 6.2 mi North 8.1 mph - N/A   Mostly Cloudy
2:50 PM 50 °F - 36 °F 48% 30.13 in 28 mi NW 8.1 mph - -   Mostly Cloudy
2:50 PM 50.0 °F - 37.4 °F 62% 30.12 in 6.2 mi WNW 6.9 mph - N/A   Mostly Cloudy
3:20 PM 50.0 °F - 37.4 °F 62% 30.12 in 6.2 mi NW 5.8 mph - N/A   Mostly Cloudy
3:50 PM 50.0 °F - 35.6 °F 58% 30.09 in 6.2 mi WNW 8.1 mph - N/A   Mostly Cloudy
4:20 PM 50.0 °F - 37.4 °F 62% 30.09 in 6.2 mi NW 8.1 mph - N/A   Mostly Cloudy
4:50 PM 48.2 °F - 35.6 °F 62% 30.09 in 6.2 mi WNW 5.8 mph - N/A   Mostly Cloudy
5:20 PM 48.2 °F - 35.6 °F 62% 30.09 in 6.2 mi WNW 5.8 mph - N/A   Mostly Cloudy
5:50 PM 49 °F - 36 °F 51% 30.11 in 25 mi West 3.5 mph - -   Overcast
5:50 PM 48.2 °F - 35.6 °F 62% 30.09 in 6.2 mi Variable 3.5 mph - N/A   Mostly Cloudy
6:20 PM 46.4 °F 45.2 °F 37.4 °F 71% 30.09 in 6.2 mi WSW 3.5 mph - N/A   Mostly Cloudy
6:50 PM 46.4 °F 43.5 °F 37.4 °F 71% 30.09 in 6.2 mi SSW 5.8 mph - N/A   Mostly Cloudy
7:20 PM 46.4 °F 42.9 °F 35.6 °F 66% 30.09 in 6.2 mi SW 6.9 mph - N/A   Mostly Cloudy
7:50 PM 46.4 °F 42.9 °F 37.4 °F 71% 30.09 in 6.2 mi SW 6.9 mph - N/A   Mostly Cloudy
8:20 PM 44.6 °F 40.7 °F 37.4 °F 76% 30.09 in 6.2 mi SW 6.9 mph - N/A   Mostly Cloudy
8:50 PM 45 °F - 37 °F 65% 30.10 in 19 mi WSW 6.9 mph - -   Overcast
8:50 PM 44.6 °F 40.7 °F 37.4 °F 76% 30.09 in 6.2 mi SW 6.9 mph - N/A   Mostly Cloudy
9:20 PM 44.6 °F 42.2 °F 37.4 °F 76% 30.09 in 6.2 mi WSW 4.6 mph - N/A   Mostly Cloudy
9:50 PM 44.6 °F 41.4 °F 37.4 °F 76% 30.09 in 6.2 mi SW 5.8 mph - N/A   Mostly Cloudy
10:20 PM 44.6 °F 40.7 °F 37.4 °F 76% 30.06 in 6.2 mi SW 6.9 mph - N/A   Mostly Cloudy
10:50 PM 44.6 °F 40.2 °F 35.6 °F 71% 30.06 in 6.2 mi SSW 8.1 mph - N/A   Mostly Cloudy
11:20 PM 42.8 °F 38.6 °F 35.6 °F 76% 30.06 in 6.2 mi SSW 6.9 mph - N/A   Mostly Cloudy
11:50 PM 44 °F - 36 °F 63% 30.08 in 22 mi SSW 9.2 mph - -   Overcast
11:50 PM 42.8 °F 38.0 °F 35.6 °F 76% 30.06 in 6.2 mi SSW 8.1 mph - N/A   Mostly Cloudy